Starlink 3219

operational
NORAD ID: 49724 Int'l Des: 2021-115 Owner: SPXS Country: US Constellation: starlink
LEOCIRCULAR

About Starlink 3219

Description loading...

Live Position

Loading 3D Globe...

Upcoming Passes

Altitude History

Altitude vs Time

uPlot chart will show altitude changes over time

Two-Line Element Set

1 49724U 21115A 25304.15373372 .00000807 00000-0 68816-4 0 9999
2 49724 53.2188 10.8490 0001323 90.0910 270.0234 15.08836832215971
Epoch: Oct 31, 2025 • Age: 12 hours

Current Status

Altitude 559.2 km
Velocity 7.58 km/s
Sub-Earth Point -53.36°S, 0.43°W
Launch Date Dec 2, 2021
Age 3.9 years
Type internet

Technical Details

Classification Payload
Mass 290.00 kg
Dry Mass 270.00 kg
Total Mass 290.00 kg
Length 0.20 m
Diameter 2.80 m
Span 9.00 m
Shape Box + pan
Manufacturer SPXS
Bus Type Starlink
Phase Status In Orbit
Owner/State SPXS/US

Large Constellations

Loading constellations...